CZ-6A DEB, 54639

Orbit data source: Space-Track

CZ-6A DEB, 54639 is space debris in SSO originally from a launch on Fri, 11 Nov 2022 UTC launched from the Taiyaun Space Center, China (TSC). Debris objects in space refer to the collection of defunct objects orbiting the Earth. Examples of debris include non-operational satellites, rocket bodies, and fragments generated from explosions, collisions, or faulty payload assembly.

Loading next visibility...
Identifier
54639, 2022-151PR
Orbit
SSO
Country
Flag of CNCN / PRC
Related business
Manufacturer
SAST
Mission
Spacecraft
Bus & Motor
Unknown
Mass
Unknown
Launch date (UTC)
2022-11-11 (4 years ago)
Launch vehicle
Unknown
Launch site
Taiyaun Space Center, China (TSC)
Object type
Payload
Rocket body
Debris
Shape & HBR
Unknown shape, 0.1 m
Radar Cross Section
Medium (>0.1 m² and <1 m²)

Expand to show TLE details & history
Last TLE update: 1 day ago

TLE from 1 day ago
0 CZ-6A DEB
1 54639U 22151PR  26205.93147436  .00000121  00000-0  87395-4 0  9990
2 54639  98.8133 209.6432 0028392 213.1738 146.7655 14.13263379190638
Epoch: 2026-07-24T22:21Z
TLE epoch observation values (Epoch: 2026-07-24T22:21:19.384Z)
Latitude
-0.00003°
Longitude
-68.33859°
Altitude
868.31 km
Speed
7.409 km/s
True Right ascension
13h 58m 34s
True Declination
0° 00' 00"
Sunlit
Object was in daylight at epoch
Visualization orbit readout
Latitude
Unknown
Longitude
Unknown
Altitude
Unknown
Speed
Unknown
Apparent Right ascension
Unknown
Apparent Declination
Unknown
Sunlit
N/A
Visualization observer readout
Local Sidereal Time
16:11:33
Azimuth
Unknown
Elevation
Unknown
Doppler factor
Unknown
Orbital elements
Apogee altitude
865.908 km
Perigee altitude
824.889 km
Semi-major axis
7,223.536 km
Eccentricity
0.00284
Inclination
98.8133°
RAAN
209.6432°
Arg. of periapsis
213.1738°
True anomaly
146.94328°
Mean anomaly
146.7655°
Eccentric anomaly
146.85445°
Mean motion
3.53524 °/min
Orbital period
101.83 mins
BSTAR
0.000087395
Loading maneuver chart data...
Computing Atmospheric mass density...
Loading historical data...
Loading historical data...
Loading historical data...
Loading historical data...
Loading historical data...
Loading historical data...
Loading historical data...

Documentation

Showing up to 5 results
|